Regional Weather Roundup
Issued by NWS

Home | Current Version | Previous Version | Graphics & Text | Print | Product List | Glossary On
Versions: 1 2 3 4 5 6 7 8 9 10 11 12 13 14 15 16 17 18 19 20 21 22 23 24 25 26 27 28 29 30 31 32 33 34 35 36 37 38 39 40 41 42 43 44 45 46 47 48 49 50
000
ASUS43 KLOT 260103
RWRIL

ILLINOIS REGIONAL WEATHER ROUNDUP
NATIONAL WEATHER SERVICE CHICAGO/ROMEOVILLE IL
800 PM CDT TUE APR 25 2017

NOTE: "FAIR" INDICATES FEW OR NO CLOUDS BELOW 12,000 FEET WITH NO
SIGNIFICANT WEATHER AND/OR OBSTRUCTIONS TO VISIBILITY.

* THESE STATIONS ARE NOT UNDER NWS QUALITY CONTROL. THEY ALSO MAY NOT
  REPORT WEATHER SUCH AS PRECIPITATION OR FOG.

ILZ001-002-007-009-015-016-024-260200-
NORTHWEST ILLINOIS

CITY           SKY/WX    TMP DP  RH WIND       PRES   REMARKS
MOLINE         MOCLDY    71  46  40 SE7       29.45S
STERLING*      CLOUDY    74  47  38 SE5       29.50R
SAVANNA*       CLOUDY    70  44  39 SE6       29.48S
$$

ILZ003-004-008-010-011-017-018-260200-
NORTH CENTRAL ILLINOIS

CITY           SKY/WX    TMP DP  RH WIND       PRES   REMARKS
ROCKFORD       CLOUDY    74  48  39 SE8       29.52S
FREEPORT*      CLOUDY    69  47  46 S7        29.52R
ROCHELLE*      CLOUDY    73  48  42 SE10      29.51S
DE KALB*       PTCLDY    71  51  48 SE13      29.54R
PERU*          MOCLDY    74  47  38 S16       29.52R
$$

ILZ005-006-012>014-019>023-260200-
NORTHEAST ILLINOIS

CITY           SKY/WX    TMP DP  RH WIND       PRES   REMARKS
CHICAGO-OHARE  MOCLDY    74  49  41 SE16      29.54R
CHICAGO-MIDWAY CLOUDY    76  51  41 SE10      29.55R
AURORA         CLOUDY    73  50  44 SE10      29.54R
LANSING*       CLEAR     72  55  55 SE7       29.57R
JOLIET*        MOCLDY    75  52  44 SE8       29.53S
WAUKEGAN       CLOUDY    57  48  72 SE8       29.56R
DUPAGE AIRPORT PTCLDY    73  51  46 SE14G22   29.53R
KANKAKEE*      MOCLDY    73  51  46 SE10      29.55S
WHEELING       PTCLDY    70  51  51 SE9       29.56R
MORRIS*        CLOUDY    73  51  44 SE13      29.52R
ROMEOVILLE*    MOCLDY    73  55  53 SE13      29.54R
NORTHERLY ISL    N/A     60  51  72 S3          N/A
$$

LMZ740>746-260200-
SOUTHERN LAKE MICHIGAN

STATION/POSITION SKY/WX   TEMP    WIND        PRES    VSBY  WAVE
                          AIR SEA DIR/SP/G                  HT/PER
                          (F)     (DEG/KT/KT) (MB)    (MI)  (FT/S)
SOUTHERN BUOY              49 42   70/ 10/ 12 1002.5          1
HARRISON CRIB              65     140/ 19/ 20   N/A
BURNHAM HARBOR             60     110/  5/  5   N/A
CALUMET HARBOR             75     140/  9/ 14 1000.5R
BURNS HARBOR               74     130/  9/ 17 1001.7R
MICHIGAN CITY              73     120/  7/ 10   N/A
ST. JOSEPH                 63 50  140/  6/  8 1002.0S         1
$$

ILZ025>027-034>036-040-047-049-050-058-095>099-260200-
WEST-CENTRAL ILLINOIS

CITY           SKY/WX    TMP DP  RH WIND       PRES   REMARKS
QUINCY         PTCLDY    76  47  35 SE8       29.44R
GALESBURG*     CLOUDY    72  48  43 SE7       29.47R
MACOMB*        CLOUDY    74  45  35 S12G20    29.48S
JACKSONVILLE*  PTCLDY    74  48  40 S13       29.49R
PITTSFIELD*    CLOUDY    76  50  40 S15       29.47R
$$

ILZ028>032-037-038-041>044-048-051>054-059>061-260200-
CENTRAL ILLINOIS

CITY           SKY/WX    TMP DP  RH WIND       PRES   REMARKS
PONTIAC        CLOUDY    75  51  42 S14       29.53R
BLOOMINGTON    MOCLDY    72  53  51 S18G24    29.54R
DECATUR        CLOUDY    73  54  51 S15G24    29.53R
PEORIA         CLOUDY    74  51  44 S10       29.51R
LACON*         CLOUDY    72  50  45 S8        29.50R
LINCOLN*       PTCLDY    74  53  47 S13G20    29.52R
SPRINGFIELD    MOCLDY    75  48  38 S13       29.51R
TAYLORVILLE    PTCLDY    73  52  47 S15       29.52R
$$

ILZ033-039-045-046-055>057-062-063-260200-
EAST-CENTRAL ILLINOIS

CITY           SKY/WX    TMP DP  RH WIND       PRES   REMARKS
CHAMPAIGN      CLOUDY    73  52  47 SE20      29.54R
RANTOUL*       PTCLDY    75  54  47 S15G23    29.54S
MATTOON        CLOUDY    71  56  58 S15G24    29.53S
PARIS*         CLOUDY    72  55  56 SE16      29.57S
$$

ILZ079-100>102-260200-
SOUTHWEST ILLINOIS

CITY           SKY/WX    TMP DP  RH WIND       PRES   REMARKS
ALTON          MOCLDY    73  48  40 S15G23    29.51R
BELLEVILLE     CLOUDY    72  52  48 SE7       29.51R
CAHOKIA*       CLOUDY    74  47  38 S8        29.51R
SPARTA*        CLEAR     72  51  48 S8        29.55R
$$

ILZ064>066-069>071-074>076-080>082-084>086-088>090-092>094-260200-
SOUTH-CENTRAL ILLINOIS

CITY           SKY/WX    TMP DP  RH WIND       PRES   REMARKS
CARBONDALE     CLEAR     70  53  54 S8        29.54S
CAIRO*         CLEAR     72  55  55 SE10      29.56F
EFFINGHAM*     MOCLDY    72  57  58 SE14      29.55S
MARION         CLEAR     73  52  46 S6        29.56S
MT. VERNON     CLOUDY    72  55  55 SE13      29.55S
CENTRALIA*     CLOUDY    74  56  54 S10G18    29.53R
SALEM*         CLOUDY    75  52  45 SE10G17   29.54R
METROPOLIS*    CLEAR     73  53  48 SE3       29.59S
$$

ILZ067-068-072-073-078-083-087-091-260200-
SOUTHEAST ILLINOIS

CITY           SKY/WX    TMP DP  RH WIND       PRES   REMARKS
LAWRENCEVILLE  MOCLDY    73  56  54 S15       29.59S
FLORA*         PTCLDY    73  57  56 SE15G23   29.55S
FAIRFIELD*     MOCLDY    73  56  57 SE8       29.55S
HARRISBURG*    CLEAR     71  56  58 SE12      29.58S
ROBINSON*      CLOUDY    71  56  59 SE12      29.58S
CARMI*         PTCLDY    70  58  66 SE14      29.57F
$$

ABBREVIATIONS USED IN REMARKS
   TC - TEMPERATURE IN CELSIUS
  WCI - WIND CHILL INDEX
   HX - HEAT INDEX
  VSB - VISIBILITY
$$





USA.gov is the U.S. government's official web portal to all federal, state and local government web resources and services.